Dyersburg, TN

9:49 PM CDT on April 25, 2017 (GMT -0500)
Dyersburg Municipal

Weather History for KDYR - May, 2012

Change the Weather History Date:

Sunday, May 20, 2012

  Actual Average Record
Temperature  
Mean Temperature 80 °F -  
Max Temperature 93 °F 77 °F 93 °F (2012)
Min Temperature 66 °F 59 °F 46 °F (2007)
Cooling Degree Days 14    
Growing Degree Days 30 (Base 50)    
Moisture  
Dew Point 58 °F    
Average Humidity 47    
Maximum Humidity 73    
Minimum Humidity 30    
Precipitation  
Precipitation 0.00 in - - ()
Sea Level Pressure  
Sea Level Pressure 30.09 in    
Wind  
Wind Speed 4 mph (SW)    
Max Wind Speed 12 mph    
Max Gust Speed 17 mph    
Visibility 10 miles    
Events Thunderstorm    
Averages and records for this station are not official NWS values.
T = Trace of Precipitation, MM = Missing Value Source: NWS Daily Summary

Daily Weather History Graph

Daily Weather History Graph

Search for Another Location

Airport or City:

Trip Planner

Search our weather history database for the weather conditions in past years. The results will help you decide how hot, cold, wet, or windy it might be!

Date:

Astronomy

May. 20, 2012 Rise Set
Actual Time 5:47 AM CDT 8:00 PM CDT
Civil Twilight 5:18 AM CDT 8:29 PM CDT
Nautical Twilight 4:43 AM CDT 9:05 PM CDT
Astronomical Twilight 4:05 AM CDT 9:44 PM CDT
Moon 5:28 AM CDT (5/20) 7:59 PM CDT (5/20)
Length of Visible Light 15h 10m
Length of Day
14h 13m
Waning Crescent, 0% of the Moon is Illuminated
May 20
Waning Crescent
May 20
New
May 28
First Quarter
Jun 4
Full
Jun 11
Last Quarter

Hourly Weather History & Observations

Time (CDT) Temp. Heat Index Dew Point Humidity Pressure Visibility Wind Dir Wind Speed Gust Speed Precip Events Conditions
12:15 AM - - - N/A% 30.07 in 10.0 mi SE 3.5 mph - N/A   Clear
12:35 AM - - - N/A% 30.06 in 10.0 mi Calm Calm - N/A   Clear
12:55 AM - - - N/A% 30.07 in 10.0 mi SSE 3.5 mph - N/A   Clear
1:15 AM - - - N/A% 30.06 in 10.0 mi SSE 3.5 mph - N/A   Clear
1:35 AM - - - N/A% 30.06 in 10.0 mi SSE 3.5 mph - N/A   Clear
1:55 AM - - - N/A% 30.07 in 10.0 mi Calm Calm - N/A   Clear
2:15 AM - - - N/A% 30.07 in 10.0 mi ESE 4.6 mph - N/A   Clear
2:35 AM - - - N/A% 30.08 in 10.0 mi ESE 3.5 mph - N/A   Clear
2:55 AM - - - N/A% 30.07 in 10.0 mi ESE 3.5 mph - N/A   Clear
3:15 AM - - - N/A% 30.08 in 10.0 mi Calm Calm - N/A   Clear
3:35 AM - - - N/A% 30.09 in 10.0 mi Calm Calm - N/A   Clear
3:55 AM - - - N/A% 30.09 in 10.0 mi Calm Calm - N/A   Clear
4:15 AM - - - N/A% 30.09 in 10.0 mi Calm Calm - N/A   Clear
4:35 AM - - - N/A% 30.10 in 10.0 mi Calm Calm - N/A   Clear
4:55 AM - - - N/A% 30.10 in 9.0 mi Calm Calm - N/A   Clear
5:15 AM - - - N/A% 30.10 in 9.0 mi Calm Calm - N/A   Clear
5:35 AM - - - N/A% 30.11 in 8.0 mi Calm Calm - N/A   Clear
5:55 AM - - - N/A% 30.12 in 5.0 mi Calm Calm - N/A   Clear
6:15 AM - - - N/A% 30.12 in 5.0 mi Calm Calm - N/A   Clear
6:35 AM - - - N/A% 30.13 in 5.0 mi Calm Calm - N/A   Clear
6:55 AM - - - N/A% 30.13 in 7.0 mi Calm Calm - N/A   Clear
7:15 AM - - - N/A% 30.13 in 10.0 mi Calm Calm - N/A   Clear
7:35 AM - - - N/A% 30.13 in 10.0 mi Calm Calm - N/A   Clear
7:55 AM - - - N/A% 30.13 in 10.0 mi Calm Calm - N/A   Clear
8:15 AM - - - N/A% 30.13 in 10.0 mi South 3.5 mph - N/A   Clear
8:35 AM 77.0 °F - 60.8 °F 57% 30.14 in 10.0 mi SW 4.6 mph - N/A   Clear
8:55 AM 78.8 °F - 60.8 °F 54% 30.14 in 10.0 mi SW 4.6 mph - N/A   Partly Cloudy
9:15 AM 82.4 °F 82.9 °F 60.8 °F 48% 30.14 in 10.0 mi WSW 5.8 mph - N/A   Partly Cloudy
9:35 AM 84.2 °F 84.4 °F 60.8 °F 45% 30.14 in 10.0 mi SSW 9.2 mph - N/A   Clear
9:55 AM 84.2 °F 83.5 °F 57.2 °F 40% 30.14 in 10.0 mi SW 9.2 mph - N/A   Clear
10:15 AM 86.0 °F 85.4 °F 59.0 °F 40% 30.14 in 10.0 mi WSW 11.5 mph 16.1 mph N/A   Clear
10:35 AM 87.8 °F 87.1 °F 59.0 °F 38% 30.14 in 10.0 mi WSW 11.5 mph - N/A   Clear
10:55 AM 87.8 °F 87.1 °F 59.0 °F 38% 30.13 in 10.0 mi WSW 9.2 mph - N/A   Clear
11:15 AM 87.8 °F 87.1 °F 59.0 °F 38% 30.13 in 10.0 mi SW 9.2 mph - N/A   Clear
11:35 AM 87.8 °F 87.6 °F 60.8 °F 40% 30.13 in 10.0 mi SSW 9.2 mph 16.1 mph N/A   Clear
11:55 AM 89.6 °F 88.9 °F 59.0 °F 36% 30.12 in 10.0 mi WSW 8.1 mph 16.1 mph N/A   Clear
12:15 PM 89.6 °F 89.5 °F 60.8 °F 38% 30.11 in 10.0 mi SSW 11.5 mph - N/A   Clear
12:35 PM 89.6 °F 89.5 °F 60.8 °F 38% 30.11 in 10.0 mi WSW 5.8 mph - N/A   Clear
12:55 PM 91.4 °F 91.4 °F 60.8 °F 36% 30.10 in 10.0 mi WSW 8.1 mph - N/A   Partly Cloudy
1:15 PM 91.4 °F 91.4 °F 60.8 °F 36% 30.09 in 10.0 mi WSW 6.9 mph - N/A   Partly Cloudy
1:35 PM 91.4 °F 90.7 °F 59.0 °F 34% 30.09 in 10.0 mi SW 4.6 mph - N/A   Clear
1:55 PM 91.4 °F 91.4 °F 60.8 °F 36% 30.08 in 10.0 mi West 10.4 mph - N/A   Partly Cloudy
2:15 PM 91.4 °F 91.4 °F 60.8 °F 36% 30.07 in 6.0 mi West 10.4 mph - N/A   Clear
2:35 PM 91.4 °F 89.9 °F 57.2 °F 31% 30.06 in 10.0 mi SSW 6.9 mph - N/A   Clear
2:55 PM 93.2 °F 91.9 °F 57.2 °F 30% 30.05 in 10.0 mi SW 10.4 mph - N/A   Clear
3:15 PM 93.2 °F 92.6 °F 59.0 °F 32% 30.04 in 10.0 mi West 4.6 mph - N/A   Clear
3:35 PM 93.2 °F 91.9 °F 57.2 °F 30% 30.03 in 10.0 mi WSW 5.8 mph - N/A   Clear
3:55 PM 91.4 °F 89.9 °F 57.2 °F 31% 30.02 in 10.0 mi WSW 8.1 mph - N/A   Clear
4:15 PM 87.8 °F 86.5 °F 57.2 °F 35% 30.02 in 10.0 mi SW 6.9 mph - N/A   Clear
4:35 PM 87.8 °F 86.5 °F 57.2 °F 35% 30.03 in 10.0 mi SW 9.2 mph - N/A Thunderstorm Partly Cloudy
4:55 PM 82.4 °F 82.0 °F 57.2 °F 42% 30.03 in 10.0 mi West 9.2 mph - N/A Thunderstorm Partly Cloudy
5:15 PM 82.4 °F 82.0 °F 57.2 °F 42% 30.02 in 10.0 mi West 8.1 mph - N/A   Mostly Cloudy
5:35 PM 82.4 °F 82.5 °F 59.0 °F 45% 30.01 in 10.0 mi West 4.6 mph - N/A   Overcast
5:55 PM 82.4 °F 82.5 °F 59.0 °F 45% 30.02 in 10.0 mi NE 3.5 mph - N/A   Partly Cloudy
6:15 PM 80.6 °F 81.5 °F 60.8 °F 51% 30.03 in 10.0 mi Calm Calm - N/A   Clear
6:35 PM 80.6 °F 81.5 °F 60.8 °F 51% 30.02 in 10.0 mi Calm Calm - N/A   Partly Cloudy
6:55 PM 82.4 °F 82.0 °F 57.2 °F 42% 30.04 in 10.0 mi WNW 6.9 mph 17.3 mph N/A   Mostly Cloudy
7:15 PM 80.6 °F 80.8 °F 57.2 °F 45% 30.03 in 10.0 mi West 8.1 mph - N/A   Scattered Clouds
7:35 PM 78.8 °F - 55.4 °F 44% 30.04 in 10.0 mi West 6.9 mph - N/A Thunderstorm Clear
7:55 PM 75.2 °F - 55.4 °F 50% 30.05 in 10.0 mi West 11.5 mph - N/A Thunderstorm Scattered Clouds
8:15 PM 71.6 °F - 57.2 °F 60% 30.06 in 10.0 mi West 8.1 mph - N/A Thunderstorm Overcast
8:35 PM 69.8 °F - 57.2 °F 64% 30.09 in 10.0 mi West 8.1 mph - N/A Thunderstorm Thunderstorm
8:55 PM 71.6 °F - 57.2 °F 60% 30.10 in 10.0 mi NW 5.8 mph - N/A   Mostly Cloudy
9:15 PM 71.6 °F - 57.2 °F 60% 30.11 in 10.0 mi NNE 8.1 mph - N/A   Scattered Clouds
9:35 PM 69.8 °F - 57.2 °F 64% 30.12 in 9.0 mi ENE 6.9 mph - N/A   Overcast
9:55 PM 69.8 °F - 57.2 °F 64% 30.12 in 7.0 mi NE 8.1 mph - N/A   Overcast
10:15 PM 68.0 °F - 57.2 °F 68% 30.14 in 6.0 mi ENE 6.9 mph - N/A Thunderstorm Overcast
10:35 PM 66.2 °F - 57.2 °F 73% 30.12 in 9.0 mi SE 8.1 mph - N/A Thunderstorm Thunderstorm
10:55 PM 66.2 °F - 57.2 °F 73% 30.11 in 8.0 mi East 9.2 mph - N/A   Overcast
11:15 PM 66.2 °F - 57.2 °F 73% 30.08 in 9.0 mi East 9.2 mph - N/A   Overcast
11:35 PM 66.2 °F - 57.2 °F 73% 30.10 in 10.0 mi ENE 6.9 mph - N/A   Overcast
11:55 PM - - - N/A% 30.08 in 9.0 mi East 5.8 mph - N/A   Mostly Cloudy